Preview of NWS' New Version of Forecast
This preview is not operational and should not be used for support decisions.

Regional Weather Roundup (RWR)

Issued by National Weather Service (NWS)

                            
000
ASUS45 KBOI 161010
RWRID 

IDAHO REGIONAL WEATHER ROUNDUP
NATIONAL WEATHER SERVICE BOISE ID
400 AM MDT TUE JUL 16 2019

NOTE: "FAIR" INDICATES FEW OR NO CLOUDS BELOW 12000 FEET
WITH NO SIGNIFICANT WEATHER AND/OR OBSTRUCTIONS TO VISIBILITY

IDZ012-014-161100-
SOUTHWEST IDAHO

  
CITY           SKY/WX    TMP DP  RH WIND       PRES   REMARKS
BOISE          PTCLDY    66  53  63 NW7       29.96R                  
CALDWELL       PTCLDY    64  54  69 W10       29.96S                  
MOUNTAIN HOME  CLEAR     64  53  68 NW15      29.95S                  
$$

IDZ016-017-161100-
SOUTHCENTRAL IDAHO

  
CITY           SKY/WX    TMP DP  RH WIND       PRES   REMARKS
BURLEY         CLOUDY    62  49  62 S7        29.98S                  
JEROME         CLOUDY    62  52  69 SW6       29.99S                  
TWIN FALLS     CLOUDY    63  47  55 SW12      30.00F                  
$$

IDZ019>023-161100-
SOUTHEAST IDAHO

  
CITY           SKY/WX    TMP DP  RH WIND       PRES   REMARKS
IDAHO FALLS    PTCLDY    50  47  89 NW3       30.01F                  
POCATELLO      MOCLDY    60  47  61 S3        29.99S                  
REXBURG        PTCLDY    57  48  72 NE6       30.01F                  
$$

IDZ006-010-011-018-031-032-161100-
CENTRAL IDAHO MOUNTAINS

  
CITY           SKY/WX    TMP DP  RH WIND       PRES   REMARKS
MCCALL         FOG       48  46  93 CALM      30.06F VSB 3/4          
HAILEY         MOCLDY    61  46  59 NW7       30.05S                  
STANLEY          N/A     45  38  76 S5        30.13F                  
SALMON         CLEAR     53  51  93 SW5       30.06F                  
CHALLIS        PTCLDY    58  45  62 CALM      30.05F                  
$$

IDZ002-004-006-007-026-161100-
NORTHERN IDAHO

  
CITY           SKY/WX    TMP DP  RH WIND       PRES   REMARKS
LEWISTON       MOCLDY    61  54  77 CALM      29.97F                  
LOWELL           N/A     60  56  86 N3        30.02F                  
COEUR D'ALENE  PTCLDY    59  54  83 E3        30.00F                  
MULLAN PASS    CLOUDY    49  42  77 SW3       30.11S                  
$$